This is the latest recevied weather packets stored in our database for station/object KC1TWD. If no packets are shown the sender has not sent any weather packets the latest 10 day(s).
| Time | Temp. | Humidity | Pressure | Rain* | Wind** | Luminosity | Snow |
|---|---|---|---|---|---|---|---|
| 1777946838 | 13.33° C | 60% | 1008.2 hPa | 0 mm | - | - | - |
| 1777946534 | 13.33° C | 57% | 1008.3 hPa | 0 mm | - | - | - |
| 1777946232 | 13.33° C | 58% | 1008.1 hPa | 0 mm | - | - | - |
| 1777945928 | 13.89° C | 60% | 1008.2 hPa | 0 mm | - | - | - |
| 1777945626 | 13.33° C | 58% | 1008.1 hPa | 0 mm | - | - | - |
| 1777945324 | 13.33° C | 59% | 1008.1 hPa | 0 mm | - | - | - |
| 1777945020 | 13.33° C | 58% | 1008.1 hPa | 0 mm | - | - | - |
| 1777944717 | 13.33° C | 58% | 1007.9 hPa | 0 mm | - | - | - |
| 1777944415 | 13.33° C | 60% | 1007.8 hPa | 0 mm | - | - | - |
| 1777944112 | 13.33° C | 60% | 1007.6 hPa | 0 mm | - | - | - |
| 1777943812 | 13.89° C | 59% | 1007.9 hPa | 0 mm | - | - | - |
| 1777943510 | 13.89° C | 57% | 1007.6 hPa | 0 mm | - | - | - |
| 1777943205 | 14.44° C | 58% | 1007.6 hPa | 0 mm | - | - | - |
| 1777942902 | 14.44° C | 56% | 1007.7 hPa | 0 mm | - | - | - |
| 1777942598 | 14.44° C | 55% | 1007.7 hPa | 0 mm | - | - | - |
| 1777942295 | 14.44° C | 56% | 1007.6 hPa | 0 mm | - | - | - |
| 1777941992 | 14.44° C | 54% | 1007.3 hPa | 0 mm | - | - | - |
| 1777941689 | 15° C | 53% | 1007.3 hPa | 0 mm | - | - | - |
| 1777941386 | 15° C | 52% | 1007.3 hPa | 0 mm | - | - | - |
| 1777941084 | 15.56° C | 51% | 1007.2 hPa | 0 mm | - | - | - |
| 1777940779 | 15.56° C | 51% | 1007.1 hPa | 0 mm | - | - | - |
| 1777940478 | 16.11° C | 50% | 1006.9 hPa | 0 mm | - | - | - |
| 1777940175 | 16.11° C | 49% | 1006.8 hPa | 0 mm | - | - | - |
| 1777939873 | 16.67° C | 49% | 1006.8 hPa | 0 mm | - | - | - |
| 1777939569 | 16.67° C | 48% | 1006.7 hPa | 0 mm | - | - | - |
* Rain latest hour (hover to see other rain measurements)
** Current wind speed in m/s (hover to see current wind gust speed)